Location: Byhalia Creek
(34.8270°N, 89.8040°W)
Time: 19:22:44
(UTC+00:00)

Cosmos 2237 Rocket - Pass Details

Date: 22 April 2026
Orbit: 833 x 850 km, 71.0° (Epoch: 21 May)

Event Time Altitude Azimuth Distance (km) Brightness Sun altitude
Rises 00:51:39 0° 194° (SSW) 3,382 5.3 -3.8°
Reaches altitude 10° 00:54:05 10° 192° (SSW) 2,453 4.6 -4.3°
Maximum altitude 00:59:42 73° 109° (ESE) 883 2.2 -5.4°
Drops below altitude 10° 01:05:22 10° 25° (NNE) 2,477 4.6 -6.5°
Sets 01:07:50 0° 24° (NNE) 3,417 5.3 -7.0°
